Location: Le Petit-Vavre
(46.5081°N, 1.5239°E)
Time: 17:33:36
(UTC+00:00)

FALCON 9 DEB - Pass Details

Date: 03 March 2021
Orbit: 424 x 435 km, 53.0° (Epoch: 14 April)

Event Time Altitude Azimuth Distance (km) Brightness Sun altitude
Rises 18:18:50 0° 299° (WNW) 2,406 8.0 -7.0°
Reaches altitude 10° 18:21:01 10° 307° (NW) 1,535 6.8 -7.4°
Maximum altitude 18:24:19 43° 20° (NNE) 617 3.7 -7.9°
Enters shadow 18:27:22 12° 92° (E) 1,428 5.0 -8.4°
